Location: Unspecified
(0.0000°N, 0.0000°E)
Time: 07:29:37
(UTC+00:00)

Envisat - Pass Details

Date: 07 January 2018
Orbit: 764 x 766 km, 98.2° (Epoch: 23 June)

Event Time Altitude Azimuth Distance (km) Brightness Sun altitude
Rises 19:48:21 0° 162° (SSE) 3,230 6.3 -23.5°
Reaches altitude 10° 19:50:41 10° 158° (SSE) 2,302 5.5 -24.0°
Enters shadow 19:54:24 46° 134° (SE) 1,024 3.4 -24.8°
